| time (UTC) | temp F | wind direction | speed knots | gust knots | rain 1hr in | rain 24hr in | rain mn in | humidity % | barometer mb |
| 20260507051602 | 51 | 360 | 7.8 | 14.8 | 0.00 | 0.00 | 0.00 | 78 | 1011.0 |
| 20260507050058 | 50 | 360 | 6.1 | 10.4 | 0.00 | 0.00 | 0.00 | 79 | 1011.0 |
| 20260507044555 | 50 | 360 | 5.2 | 8.7 | 0.00 | 0.00 | 0.00 | 80 | 1010.8 |
| 20260507043053 | 50 | 360 | 4.3 | 7.0 | 0.00 | 0.00 | 0.00 | 81 | 1010.6 |
| 20260507041553 | 50 | 360 | 2.6 | 7.0 | 0.00 | 0.00 | 0.00 | 81 | 1010.3 |
| 20260507040050 | 50 | 360 | 3.5 | 7.8 | 0.00 | 0.00 | 0.00 | 81 | 1010.2 |
| 20260507034549 | 50 | 360 | 4.3 | 7.0 | 0.00 | 0.00 | 0.00 | 81 | 1010.1 |
| 20260507033048 | 50 | 360 | 5.2 | 8.7 | 0.00 | 0.00 | 0.00 | 80 | 1010.0 |
| 20260507031545 | 51 | 360 | 3.5 | 9.6 | 0.00 | 0.00 | 0.00 | 80 | 1009.9 |
| 20260507030044 | 51 | 360 | 4.3 | 9.6 | 0.00 | 0.00 | 0.00 | 80 | 1009.9 |
| 20260507024541 | 51 | 360 | 6.1 | 11.3 | 0.00 | 0.00 | 0.00 | 80 | 1009.8 |
| 20260507023042 | 51 | 360 | 5.2 | 9.6 | 0.00 | 0.00 | 0.00 | 79 | 1009.7 |
| 20260507021540 | 52 | 360 | 4.3 | 8.7 | 0.00 | 0.00 | 0.00 | 79 | 1009.7 |
| 20260507020052 | 51 | 360 | 3.5 | 8.7 | 0.00 | 0.00 | 0.00 | 80 | 1009.6 |
| 20260507014543 | 52 | 360 | 7.0 | 12.2 | 0.00 | 0.00 | 0.00 | 80 | 1009.4 |
| 20260507013034 | 52 | 360 | 6.1 | 12.2 | 0.00 | 0.00 | 0.00 | 80 | 1009.2 |
| 20260507011533 | 52 | 360 | 8.7 | 14.8 | 0.00 | 0.00 | 0.00 | 80 | 1009.1 |
| 20260507010030 | 52 | 360 | 7.8 | 11.3 | 0.00 | 0.00 | 0.00 | 80 | 1009.1 |
| 20260507004534 | 53 | 360 | 7.0 | 11.3 | 0.00 | 0.00 | 0.00 | 80 | 1009.0 |
| 20260507003031 | 53 | 360 | 6.1 | 11.3 | 0.00 | 0.00 | 0.00 | 80 | 1008.8 |
| 20260507001527 | 53 | 360 | 7.0 | 12.2 | 0.00 | 0.00 | 0.00 | 80 | 1008.8 |
| 20260507000027 | 53 | 360 | 7.8 | 12.2 | 0.00 | 0.00 | 0.00 | 80 | 1008.7 |
| 20260506234533 | 54 | 360 | 8.7 | 13.0 | 0.00 | 0.00 | 0.00 | 80 | 1009.0 |
| 20260506233020 | 54 | 360 | 7.8 | 13.9 | 0.00 | 0.00 | 0.00 | 79 | 1008.6 |
| 20260506231530 | 54 | 360 | 9.6 | 14.8 | 0.00 | 0.00 | 0.00 | 79 | 1008.0 |
| 20260506230017 | 54 | 360 | 6.1 | 11.3 | 0.00 | 0.00 | 0.00 | 79 | 1008.1 |
| 20260506224516 | 54 | 360 | 8.7 | 12.2 | 0.00 | 0.00 | 0.00 | 79 | 1008.1 |
| 20260506223014 | 54 | 360 | 7.0 | 10.4 | 0.00 | 0.00 | 0.00 | 78 | 1008.0 |
| 20260506221512 | 54 | 360 | 5.2 | 13.0 | 0.00 | 0.00 | 0.00 | 78 | 1007.7 |
| 20260506220010 | 54 | 360 | 7.0 | 13.9 | 0.00 | 0.00 | 0.00 | 78 | 1007.5 |
| 20260506214510 | 54 | 360 | 6.1 | 9.6 | 0.00 | 0.00 | 0.00 | 80 | 1007.0 |
| 20260506213008 | 55 | 360 | 2.6 | 10.4 | 0.00 | 0.00 | 0.00 | 79 | 1006.6 |
| 20260506211513 | 55 | 360 | 7.0 | 12.2 | 0.00 | 0.00 | 0.00 | 78 | 1006.5 |
| 20260506210008 | 56 | 360 | 7.8 | 14.8 | 0.00 | 0.00 | 0.00 | 77 | 1006.2 |
| 20260506204507 | 56 | 360 | 5.2 | 16.5 | 0.00 | 0.00 | 0.00 | 77 | 1006.1 |
| 20260506203007 | 57 | 360 | 11.3 | 19.1 | 0.00 | 0.00 | 0.00 | 76 | 1006.4 |
| 20260506201506 | 58 | 360 | 11.3 | 19.1 | 0.00 | 0.00 | 0.00 | 74 | 1006.1 |
| 20260506200006 | 59 | 360 | 12.2 | 20.9 | 0.00 | 0.00 | 0.00 | 71 | 1006.0 |
| 20260506194505 | 61 | 360 | 10.4 | 18.2 | 0.00 | 0.00 | 0.00 | 66 | 1005.7 |
| 20260506193005 | 61 | 360 | 0.9 | 3.5 | 0.00 | 0.00 | 0.00 | 62 | 1004.7 |
| 20260506191506 | 61 | 360 | 0.9 | 3.5 | 0.00 | 0.00 | 0.00 | 60 | 1004.6 |
| 20260506190006 | 64 | 360 | 0.0 | 5.2 | 0.00 | 0.00 | 0.00 | 56 | 1004.1 |
| 20260506184505 | 67 | 360 | 1.7 | 5.2 | 0.00 | 0.00 | 0.00 | 49 | 1003.7 |
| 20260506183005 | 68 | 360 | 0.9 | 7.8 | 0.00 | 0.00 | 0.00 | 48 | 1003.2 |
| 20260506181508 | 68 | 360 | 2.6 | 7.8 | 0.00 | 0.00 | 0.00 | 48 | 1003.0 |
| 20260506180010 | 69 | 360 | 0.9 | 3.5 | 0.00 | 0.00 | 0.00 | 47 | 1003.2 |
| 20260506174509 | 70 | 360 | 0.9 | 4.3 | 0.00 | 0.00 | 0.00 | 46 | 1003.0 |
| 20260506173004 | 70 | 360 | 1.7 | 7.0 | 0.00 | 0.00 | 0.00 | 46 | 1002.9 |
| 20260506171503 | 72 | 360 | 2.6 | 8.7 | 0.00 | 0.00 | 0.00 | 46 | 1002.8 |
| 20260506170001 | 72 | 360 | 3.5 | 9.6 | 0.00 | 0.00 | 0.00 | 44 | 1002.9 |
| 20260506164603 | 73 | 360 | 4.3 | 7.8 | 0.00 | 0.00 | 0.00 | 45 | 1003.0 |
| 20260506163111 | 72 | 360 | 3.5 | 8.7 | 0.00 | 0.00 | 0.00 | 46 | 1003.0 |
| 20260506161558 | 72 | 360 | 3.5 | 8.7 | 0.00 | 0.00 | 0.00 | 46 | 1003.3 |
| 20260506160100 | 71 | 360 | 4.3 | 10.4 | 0.00 | 0.00 | 0.00 | 48 | 1003.4 |
| 20260506154559 | 71 | 360 | 5.2 | 10.4 | 0.00 | 0.00 | 0.00 | 50 | 1003.6 |
| 20260506153053 | 71 | 360 | 4.3 | 11.3 | 0.00 | 0.00 | 0.00 | 50 | 1004.0 |
| 20260506151553 | 70 | 360 | 6.1 | 13.0 | 0.00 | 0.00 | 0.00 | 51 | 1003.9 |
| 20260506150052 | 70 | 360 | 4.3 | 10.4 | 0.00 | 0.00 | 0.00 | 52 | 1004.0 |
| 20260506144602 | 70 | 360 | 2.6 | 10.4 | 0.00 | 0.00 | 0.00 | 52 | 1004.3 |
| 20260506143049 | 72 | 360 | 4.3 | 12.2 | 0.00 | 0.00 | 0.00 | 49 | 1004.5 |
| 20260506141550 | 72 | 360 | 5.2 | 10.4 | 0.00 | 0.00 | 0.00 | 51 | 1004.5 |
| 20260506140048 | 72 | 360 | 6.1 | 11.3 | 0.00 | 0.00 | 0.00 | 52 | 1004.7 |
| 20260506134545 | 71 | 360 | 6.1 | 9.6 | 0.00 | 0.00 | 0.00 | 54 | 1004.9 |
| 20260506133045 | 71 | 360 | 6.1 | 12.2 | 0.00 | 0.00 | 0.00 | 52 | 1005.0 |
| 20260506131544 | 71 | 360 | 7.8 | 17.4 | 0.00 | 0.00 | 0.00 | 52 | 1005.1 |
| 20260506130042 | 70 | 360 | 5.2 | 12.2 | 0.00 | 0.00 | 0.00 | 51 | 1005.3 |
| 20260506124541 | 71 | 360 | 8.7 | 13.9 | 0.00 | 0.00 | 0.00 | 53 | 1005.4 |
| 20260506123040 | 70 | 360 | 1.7 | 14.8 | 0.00 | 0.00 | 0.00 | 53 | 1005.7 |
| 20260506121539 | 70 | 360 | 6.1 | 14.8 | 0.00 | 0.00 | 0.00 | 52 | 1005.8 |
| 20260506120042 | 69 | 360 | 6.1 | 13.0 | 0.00 | 0.00 | 0.00 | 54 | 1006.0 |
| 20260506114536 | 69 | 360 | 4.3 | 9.6 | 0.00 | 0.00 | 0.00 | 52 | 1006.2 |
| 20260506113036 | 70 | 360 | 5.2 | 13.0 | 0.00 | 0.00 | 0.00 | 52 | 1006.5 |
| 20260506111536 | 70 | 360 | 7.0 | 15.6 | 0.00 | 0.00 | 0.00 | 49 | 1006.5 |
| 20260506110035 | 71 | 360 | 7.0 | 14.8 | 0.00 | 0.00 | 0.00 | 50 | 1006.7 |
| 20260506104532 | 70 | 360 | 4.3 | 14.8 | 0.00 | 0.00 | 0.00 | 49 | 1006.7 |
| 20260506103030 | 68 | 360 | 3.5 | 9.6 | 0.00 | 0.00 | 0.00 | 53 | 1006.8 |
| 20260506101528 | 68 | 360 | 6.1 | 9.6 | 0.00 | 0.00 | 0.00 | 54 | 1007.1 |
| 20260506100029 | 67 | 360 | 0.9 | 4.3 | 0.00 | 0.00 | 0.00 | 58 | 1007.2 |
| 20260506094527 | 69 | 360 | 0.9 | 3.5 | 0.00 | 0.00 | 0.00 | 53 | 1007.2 |
| 20260506093026 | 68 | 360 | 4.3 | 12.2 | 0.00 | 0.00 | 0.00 | 53 | 1007.4 |
| 20260506091524 | 67 | 360 | 3.5 | 7.8 | 0.00 | 0.00 | 0.00 | 55 | 1007.7 |
| 20260506090038 | 67 | 360 | 4.3 | 7.0 | 0.00 | 0.00 | 0.00 | 59 | 1007.7 |
| 20260506084523 | 66 | 360 | 0.9 | 5.2 | 0.00 | 0.00 | 0.00 | 60 | 1007.6 |
| 20260506083019 | 66 | 360 | 1.7 | 5.2 | 0.00 | 0.00 | 0.00 | 61 | 1007.8 |
| 20260506081516 | 64 | 360 | 1.7 | 4.3 | 0.00 | 0.00 | 0.00 | 68 | 1007.9 |
| 20260506073009 | 62 | 360 | 1.7 | 4.3 | 0.00 | 0.00 | 0.00 | 68 | 1008.1 |
| 20260506071508 | 62 | 360 | 0.0 | 7.0 | 0.00 | 0.00 | 0.00 | 69 | 1008.3 |
| 20260506061501 | 58 | 360 | 6.1 | 8.7 | 0.00 | 0.00 | 0.00 | 73 | 1008.4 |